Location: Hopewell Observatory
(38.8698°N, 77.6988°W)
Time: 14:52:39
(UTC-05:00)

Amateur Radio Satellites - All Passes

Search period start: 01 March 2017 14:22
Search period end: 02 March 2017 14:22
Location: Hopewell Observatory, 38.8698°N, 77.6988°W

Satellite Date Start Highest point End Downlink Frequencies (MHz)
Time Altitude Azimuth
Tancredo 1 01 Mar 14:24:59 14:26:24 12° 232° (SW) 14:27:49 437.200
ITUPSAT 1 01 Mar 14:25:25 14:29:39 30° 97° (E) 14:33:49 437.325
BEESAT 01 Mar 14:28:46 14:33:06 33° 97° (E) 14:37:24 436.000
AO-7 01 Mar 14:29:37 14:37:53 68° 68° (ENE) 14:46:10 .
BEESAT 3 01 Mar 14:48:46 14:52:23 33° 246° (WSW) 14:55:58 437.485
NO-84 01 Mar 14:52:52 14:55:36 32° 129° (SE) 14:58:33 435.350 FM
ITAMSAT 1 01 Mar 15:21:29 15:26:14 36° 262° (W) 15:31:02 435.822/435.867
PCSat 01 Mar 15:34:44 15:40:06 66° 300° (WNW) 15:45:31 145.827
BEESAT 2 01 Mar 15:37:41 15:41:00 25° 248° (WSW) 15:44:18 435.950
RS-15 01 Mar 15:38:17 15:48:58 42° 106° (ESE) 16:00:01 29.354- 29.394
KKS-1 01 Mar 15:43:05 15:46:06 18° 94° (E) 15:49:06 437.445
MOZHAYETS 4 01 Mar 15:45:16 15:49:53 82° 102° (ESE) 15:54:27
ITUPSAT 1 01 Mar 16:03:21 16:07:21 27° 292° (WNW) 16:11:19 437.325
STARS 01 Mar 16:04:43 16:06:44 13° 92° (E) 16:08:44 437.465
BEESAT 01 Mar 16:06:51 16:10:41 24° 293° (WNW) 16:14:29 436.000
AO-7 01 Mar 16:24:40 16:31:11 25° 265° (W) 16:37:45 .
LilacSat-2 01 Mar 16:26:08 16:27:42 12° 66° (ENE) 16:29:18 437.200
NO-84 01 Mar 16:30:44 16:33:17 22° 328° (NNW) 16:36:02 435.350 FM
DOVE 4 01 Mar 16:42:23 16:45:35 22° 68° (ENE) 16:48:50 437.250
CUBESAT XI-V 01 Mar 16:57:18 17:01:55 75° 103° (ESE) 17:06:30 437.345
KAITUO 1B 01 Mar 17:01:57 17:05:05 25° 71° (ENE) 17:08:14 145.475/437.950
CUTE-I 01 Mar 17:03:21 17:08:15 38° 69° (ENE) 17:13:11 437.470
XW-2F 01 Mar 17:14:10 17:17:49 42° 73° (ENE) 17:21:28 145.980 - 146.000
KKS-1 01 Mar 17:18:36 17:22:47 40° 289° (WNW) 17:26:58 437.445
XW-2D 01 Mar 17:21:40 17:25:26 57° 75° (ENE) 17:29:14 145.860 - 145.880
PCSat 01 Mar 17:22:49 17:24:33 11° 320° (NW) 17:26:18 145.827
XW-2B 01 Mar 17:26:48 17:30:36 64° 76° (ENE) 17:34:26 145.730 - 145.750
NUDT-PHONESAT 01 Mar 17:30:18 17:34:00 57° 76° (ENE) 17:37:44 437.300
XW-2C 01 Mar 17:35:36 17:39:27 85° 81° (E) 17:43:20 145.795 - 145.815
STARS 01 Mar 17:39:02 17:43:22 54° 287° (WNW) 17:47:41 437.465
HO-68 01 Mar 17:47:55 17:53:54 30° 62° (ENE) 17:59:53 435.675
RS-15 01 Mar 17:49:10 18:00:58 60° 308° (NW) 18:13:13 29.354- 29.394
LilacSat-2 01 Mar 17:57:49 18:01:33 46° 261° (W) 18:05:20 437.200
M-CUBED/EXP-1 PRIME 01 Mar 18:04:34 18:08:31 73° 288° (WNW) 18:12:45 437.505
DOVE 4 01 Mar 18:19:39 18:23:09 27° 264° (W) 18:26:45 437.250
CUTE 1.7 + AOD 2 01 Mar 18:30:42 18:34:39 38° 72° (ENE) 18:38:36 437.475
UWE-3 01 Mar 18:32:54 18:34:42 12° 63° (ENE) 18:36:31 435.000/436.395/437.385
KAITUO 1B 01 Mar 18:36:11 18:39:03 20° 265° (W) 18:41:56 145.475/437.950
CUBESAT XI-V 01 Mar 18:37:29 18:38:38 11° 298° (WNW) 18:39:47 437.345
CUTE-I 01 Mar 18:44:00 18:48:22 25° 265° (W) 18:52:45 437.470
XW-2F 01 Mar 18:50:36 18:52:10 12° 269° (W) 18:53:42 145.980 - 146.000
AAUSAT CUBESAT 2 01 Mar 18:54:15 18:57:27 22° 69° (ENE) 19:00:39 437.432
XW-2A 01 Mar 19:00:22 19:03:42 52° 260° (W) 19:07:04 145.665 - 145.685
SEEDS 01 Mar 19:18:21 19:22:35 89° 59° (ENE) 19:26:50 437.485
STRAND 1 01 Mar 19:18:45 19:23:47 52° 100° (E) 19:28:46 437.568
AO-73 01 Mar 19:26:18 19:29:55 24° 68° (ENE) 19:33:35 145.935
Oscar 11 01 Mar 19:27:16 19:30:31 21° 68° (ENE) 19:33:46 .
YUBILEINY 01 Mar 19:33:10 19:39:03 19° 64° (ENE) 19:44:54 435.215
HO-68 01 Mar 19:34:18 19:41:14 52° 259° (W) 19:48:13 435.675
CUBEBUG 2 01 Mar 19:39:00 19:43:29 82° 259° (W) 19:48:08 437.445
SO-50 01 Mar 20:00:18 20:03:38 19° 111° (ESE) 20:06:57 436.795
UWE-3 01 Mar 20:06:02 20:10:30 67° 259° (W) 20:15:07 435.000/436.395/437.385
RS-15 01 Mar 20:07:36 20:16:53 24° 338° (NNW) 20:26:18 29.354- 29.394
CUTE 1.7 + AOD 2 01 Mar 20:07:49 20:10:36 17° 267° (W) 20:13:23 437.475
ZACube-1 01 Mar 20:15:48 20:20:18 89° 266° (W) 20:24:54 437.345
JUGNU 01 Mar 20:23:26 20:24:52 11° 177° (S) 20:26:17 437.505
AAUSAT CUBESAT 2 01 Mar 20:29:11 20:32:45 27° 264° (W) 20:36:19 437.432
O/OREOS (USA 219) 01 Mar 20:34:22 20:36:16 13° 98° (E) 20:38:11 437.305
PRISM 01 Mar 20:46:41 20:49:14 16° 94° (E) 20:51:46 437.425
STRAND 1 01 Mar 20:59:02 21:02:31 19° 296° (WNW) 21:05:59 437.568
AO-73 01 Mar 21:02:02 21:05:59 30° 264° (W) 21:10:00 145.935
Oscar 11 01 Mar 21:02:30 21:06:25 32° 263° (W) 21:10:21 .
DELFI C3 01 Mar 21:17:07 21:21:03 69° 258° (WSW) 21:25:00 145.870
NO-84 01 Mar 21:27:20 21:30:27 22° 32° (NNE) 21:33:43 435.350 FM
YUBILEINY 01 Mar 21:28:12 21:36:58 84° 264° (W) 21:45:38 435.215
SO-50 01 Mar 21:39:18 21:43:47 45° 306° (NW) 21:48:14 436.795
FO-29 01 Mar 21:49:25 21:55:14 25° 90° (E) 22:00:32 435.910
LO-87 01 Mar 22:03:55 22:07:16 43° 74° (ENE) 22:10:39 145.935 - 145.965
O/OREOS (USA 219) 01 Mar 22:10:44 22:15:07 55° 294° (WNW) 22:19:33 437.305
ESTCUBE 1 01 Mar 22:11:02 22:14:57 30° 70° (ENE) 22:18:53 437.505/2401.250
VELOX 1 01 Mar 22:17:23 22:18:45 11° 62° (ENE) 22:20:05 145.980
PRISM 01 Mar 22:20:52 22:24:38 36° 288° (WNW) 22:28:24 437.425
TIGRISAT 01 Mar 22:25:28 22:30:12 88° 108° (ESE) 22:34:47 435.000
UNISAT 6 01 Mar 22:26:45 22:31:28 84° 282° (WNW) 22:36:04 437.425
RS-15 01 Mar 22:27:01 22:35:48 21° 15° (NNE) 22:44:27 29.354- 29.394
PCSat 01 Mar 22:42:29 22:44:53 13° 41° (NE) 22:47:17 145.827
POLYITAN 1 01 Mar 22:45:28 22:46:55 11° 91° (E) 22:48:22 437.675
QB50P2 01 Mar 22:48:02 22:50:11 14° 92° (E) 22:52:20 145.880/145.840
AIST 2D 01 Mar 22:49:23 22:52:02 20° 95° (E) 22:54:39 435.315
NO-84 01 Mar 23:04:22 23:08:24 62° 227° (SW) 23:12:40 435.350 FM
SRMSAT 01 Mar 23:20:03 23:21:56 11° 180° (S) 23:23:50 437.500
SPROUT 01 Mar 23:20:20 23:24:22 43° 73° (ENE) 23:28:26 437.525
DX 1 01 Mar 23:25:43 23:29:22 27° 69° (ENE) 23:33:01 434.975-435.025
UKube-1 01 Mar 23:28:02 23:31:14 21° 67° (ENE) 23:34:27 .
YUBILEINY 01 Mar 23:28:03 23:32:18 15° 284° (WNW) 23:36:33 435.215
FO-29 01 Mar 23:33:26 23:40:43 58° 290° (WNW) 23:47:13 435.910
DUCHIFAT 1 01 Mar 23:42:51 23:46:57 44° 99° (E) 23:51:00 145.980
50 SAT 01 Mar 23:43:45 23:47:12 70° 75° (ENE) 23:50:40 437.505
ESTCUBE 1 01 Mar 23:48:07 23:51:44 23° 265° (W) 23:55:21 437.505/2401.250
VELOX 1 01 Mar 23:50:15 23:54:36 67° 258° (WSW) 23:58:59 145.980
EO-79 01 Mar 23:59:34 00:03:52 87° 100° (E) 00:08:08 145.935-145.965
NANOSAT C BR1 02 Mar 00:13:19 00:17:34 71° 285° (WNW) 00:21:48 145.865
POLYITAN 1 02 Mar 00:18:48 00:23:02 56° 286° (WNW) 00:27:13 437.675
BUGSAT 1 02 Mar 00:19:09 00:23:08 38° 98° (E) 00:27:07 437.445
QB50P2 02 Mar 00:22:06 00:26:13 47° 287° (WNW) 00:30:19 145.880/145.840
AIST 2D 02 Mar 00:22:25 00:25:10 21° 290° (WNW) 00:27:55 435.315
PCSat 02 Mar 00:23:46 00:29:13 75° 61° (ENE) 00:34:38 145.827
RS-15 02 Mar 00:40:40 00:52:32 49° 46° (NE) 01:03:54 29.354- 29.394
SPROUT 02 Mar 00:58:06 01:00:29 15° 268° (W) 01:02:52 437.525
Gurwin Techsat 1B 02 Mar 00:58:54 01:02:11 16° 92° (E) 01:05:28 435.225
DX 1 02 Mar 01:01:58 01:05:29 24° 264° (W) 01:09:01 434.975-435.025
UKube-1 02 Mar 01:03:12 01:07:02 32° 262° (W) 01:10:55 .
Oscar 19 02 Mar 01:10:54 01:15:41 39° 98° (E) 01:20:27 437.125/150
DUCHIFAT 1 02 Mar 01:19:44 01:22:14 15° 294° (WNW) 01:24:42 145.980
FO-29 02 Mar 01:22:32 01:23:58 11° 310° (NW) 01:25:24 435.910
ITUPSAT 1 02 Mar 01:30:52 01:35:05 31° 69° (ENE) 01:39:19 437.325
BEESAT 02 Mar 01:33:50 01:38:07 34° 70° (ENE) 01:42:27 436.000
AO-85 02 Mar 01:44:13 01:46:09 13° 110° (ESE) 01:48:02 145.980
BUGSAT 1 02 Mar 01:55:22 01:58:11 17° 294° (WNW) 02:00:59 437.445
PCSat 02 Mar 02:09:23 02:11:54 13° 257° (WSW) 02:14:24 145.827
AO-7 02 Mar 02:33:55 02:40:07 23° 94° (E) 02:46:15 .
Gurwin Techsat 1B 02 Mar 02:37:15 02:42:29 58° 287° (WNW) 02:47:41 435.225
KKS-1 02 Mar 02:40:40 02:43:08 15° 64° (ENE) 02:45:35 437.445
MOZHAYETS 4 02 Mar 02:45:26 02:50:01 67° 75° (ENE) 02:54:39
Oscar 19 02 Mar 02:50:43 02:54:45 24° 294° (WNW) 02:58:48 437.125/150
RS-15 02 Mar 02:53:31 03:05:12 54° 250° (WSW) 03:16:23 29.354- 29.394
STARS 02 Mar 03:01:42 03:02:33 10° 62° (ENE) 03:03:24 437.465
ITUPSAT 1 02 Mar 03:08:54 03:12:53 26° 264° (W) 03:16:54 437.325
BEESAT 02 Mar 03:12:07 03:15:56 23° 265° (W) 03:19:46 436.000
AO-85 02 Mar 03:21:37 03:26:09 62° 303° (WNW) 03:30:22 145.980
ITAMSAT 1 02 Mar 03:34:57 03:40:13 88° 103° (ESE) 03:45:26 435.822/435.867
CUBESAT XI-V 02 Mar 03:58:59 04:03:34 62° 75° (ENE) 04:08:10 437.345
KKS-1 02 Mar 04:14:56 04:19:14 50° 260° (W) 04:23:34 437.445
AO-7 02 Mar 04:25:14 04:33:31 73° 292° (WNW) 04:41:44 .
MOZHAYETS 4 02 Mar 04:26:16 04:27:36 11° 270° (W) 04:28:56
SO-50 02 Mar 04:32:31 04:35:06 15° 43° (NE) 04:37:41 436.795
STARS 02 Mar 04:33:54 04:38:15 72° 258° (WSW) 04:42:40 437.465
BEESAT 3 02 Mar 04:36:54 04:40:40 50° 117° (ESE) 04:44:30 437.485
M-CUBED/EXP-1 PRIME 02 Mar 04:50:14 04:53:27 67° 253° (WSW) 04:56:44 437.505
ISS 02 Mar 05:12:31 05:15:15 24° 132° (SE) 05:17:59 437.550
ITAMSAT 1 02 Mar 05:17:10 05:18:53 12° 301° (WNW) 05:20:37 435.822/435.867
CUTE-I 02 Mar 05:22:38 05:26:00 17° 92° (E) 05:29:21 437.470
Tancredo 1 02 Mar 05:23:58 05:26:55 33° 135° (SE) 05:29:54 437.200
BEESAT 2 02 Mar 05:26:53 05:30:48 75° 119° (ESE) 05:34:48 435.950
LilacSat-2 02 Mar 05:32:58 05:35:45 19° 94° (E) 05:38:30 437.200
CUBESAT XI-V 02 Mar 05:39:36 05:41:19 12° 270° (W) 05:43:03 437.345
KAITUO 1B 02 Mar 06:07:46 06:11:19 39° 98° (E) 06:14:49 145.475/437.950
SO-50 02 Mar 06:11:35 06:16:04 72° 240° (WSW) 06:20:30 436.795
BEESAT 3 02 Mar 06:16:11 06:18:34 15° 315° (NW) 06:20:58 437.485
DOVE 4 02 Mar 06:17:40 06:22:34 79° 102° (ESE) 06:27:43 437.250
AO-7 02 Mar 06:20:21 06:24:52 16° 311° (NW) 06:29:22 .
XW-2F 02 Mar 06:21:26 06:25:14 76° 101° (E) 06:29:00 145.980 - 146.000
XW-2D 02 Mar 06:29:29 06:33:17 79° 283° (WNW) 06:37:03 145.860 - 145.880
STRAND 1 02 Mar 06:33:11 06:38:16 66° 74° (ENE) 06:43:24 437.568
XW-2B 02 Mar 06:34:41 06:38:29 69° 283° (WNW) 06:42:13 145.730 - 145.750
NUDT-PHONESAT 02 Mar 06:35:53 06:39:39 83° 282° (WNW) 06:43:21 437.300
O/OREOS (USA 219) 02 Mar 06:43:13 06:46:49 22° 59° (ENE) 06:50:24 437.305
XW-2C 02 Mar 06:43:39 06:47:21 51° 286° (WNW) 06:51:01 145.795 - 145.815
ISS 02 Mar 06:48:33 06:51:37 34° 329° (NNW) 06:54:42 437.550
Tancredo 1 02 Mar 07:00:22 07:03:12 27° 331° (NNW) 07:06:02 437.200
CUTE-I 02 Mar 07:01:06 07:06:24 58° 287° (WNW) 07:11:38 437.470
HO-68 02 Mar 07:03:28 07:09:49 33° 97° (E) 07:16:06 435.675
SEEDS 02 Mar 07:04:36 07:07:10 16° 93° (E) 07:09:42 437.485
LilacSat-2 02 Mar 07:06:47 07:10:00 26° 289° (WNW) 07:13:12 437.200
BEESAT 2 02 Mar 07:07:30 07:09:05 12° 317° (NW) 07:10:40 435.950
CUBEBUG 2 02 Mar 07:31:38 07:35:30 24° 94° (E) 07:39:17 437.445
PRISM 02 Mar 07:37:01 07:37:34 10° 63° (ENE) 07:38:09 437.425
KAITUO 1B 02 Mar 07:43:15 07:44:57 13° 294° (WNW) 07:46:39 145.475/437.950
CUTE 1.7 + AOD 2 02 Mar 07:52:03 07:56:17 89° 280° (W) 08:00:28 437.475
XW-2A 02 Mar 07:56:14 07:59:31 40° 286° (WNW) 08:02:45 145.665 - 145.685
UWE-3 02 Mar 07:57:20 08:01:20 28° 95° (E) 08:05:12 435.000/436.395/437.385
DOVE 4 02 Mar 07:57:52 07:59:39 12° 297° (WNW) 08:01:29 437.250
FO-29 02 Mar 08:02:48 08:05:31 12° 52° (NE) 08:08:16 435.910
ZACube-1 02 Mar 08:06:21 08:09:40 20° 93° (E) 08:12:55 437.345
AAUSAT CUBESAT 2 02 Mar 08:11:48 08:15:46 46° 99° (E) 08:19:42 437.432
STRAND 1 02 Mar 08:15:23 08:17:52 13° 269° (W) 08:20:22 437.568
O/OREOS (USA 219) 02 Mar 08:22:06 08:26:17 35° 255° (WSW) 08:30:28 437.305
ISS 02 Mar 08:27:48 08:28:53 11° 348° (NNW) 08:29:58 437.550
YUBILEINY 02 Mar 08:33:26 08:39:49 23° 81° (E) 08:46:11 435.215
SEEDS 02 Mar 08:39:08 08:42:59 38° 288° (WNW) 08:46:49 437.485
Oscar 11 02 Mar 08:50:25 08:54:35 47° 99° (E) 08:58:44 .
AO-73 02 Mar 08:50:41 08:55:08 57° 100° (E) 08:59:26 145.935
HO-68 02 Mar 08:50:54 08:57:36 45° 294° (WNW) 09:04:17 435.675
DELFI C3 02 Mar 08:56:36 08:58:59 15° 93° (E) 09:01:21 145.870
CUBEBUG 2 02 Mar 09:07:53 09:12:06 32° 290° (WNW) 09:16:13 437.445
PRISM 02 Mar 09:08:17 09:12:19 63° 259° (WSW) 09:16:21 437.425
TIGRISAT 02 Mar 09:22:19 09:26:48 64° 74° (ENE) 09:31:25 435.000
UNISAT 6 02 Mar 09:23:43 09:28:15 72° 75° (ENE) 09:32:54 437.425
UWE-3 02 Mar 09:33:47 09:37:39 27° 291° (WNW) 09:41:27 435.000/436.395/437.385
FO-29 02 Mar 09:41:41 09:48:51 61° 71° (ENE) 09:56:33 435.910
ZACube-1 02 Mar 09:41:55 09:46:02 35° 289° (WNW) 09:50:02 437.345
AAUSAT CUBESAT 2 02 Mar 09:48:45 09:50:49 14° 294° (WNW) 09:52:52 437.432
ISS 02 Mar 10:06:26 10:06:37 10° 8° (N) 10:06:48 437.550
Tancredo 1 02 Mar 10:17:10 10:17:49 10° 11° (NNE) 10:18:30 437.200
YUBILEINY 02 Mar 10:26:55 10:35:42 71° 279° (W) 10:44:30 435.215
Oscar 11 02 Mar 10:27:56 10:30:18 15° 295° (WNW) 10:32:40 .
AO-73 02 Mar 10:28:39 10:30:48 13° 296° (WNW) 10:32:57 145.935
DELFI C3 02 Mar 10:30:18 10:33:52 34° 288° (WNW) 10:37:26 145.870
DUCHIFAT 1 02 Mar 10:33:29 10:37:04 28° 70° (ENE) 10:40:41 145.980
EO-79 02 Mar 10:50:21 10:54:27 52° 74° (ENE) 10:58:36 145.935-145.965
AIST 2D 02 Mar 10:54:30 10:58:03 76° 258° (WSW) 11:01:38 435.315
TIGRISAT 02 Mar 11:02:27 11:03:55 11° 271° (W) 11:05:24 435.000
NANOSAT C BR1 02 Mar 11:03:37 11:07:49 70° 75° (ENE) 11:12:03 145.865
LO-87 02 Mar 11:05:12 11:08:47 69° 99° (E) 11:12:24 145.935 - 145.965
BUGSAT 1 02 Mar 11:08:00 11:11:12 22° 68° (ENE) 11:14:26 437.445
POLYITAN 1 02 Mar 11:09:31 11:13:46 89° 61° (ENE) 11:18:04 437.675
QB50P2 02 Mar 11:12:46 11:17:00 77° 258° (WSW) 11:21:17 145.880/145.840
FO-29 02 Mar 11:28:16 11:34:16 27° 269° (W) 11:40:37 435.910
ESTCUBE 1 02 Mar 11:40:35 11:45:05 79° 102° (ESE) 11:49:33 437.505/2401.250
ISS 02 Mar 11:41:11 11:44:01 25° 28° (NNE) 11:46:50 437.550
VELOX 1 02 Mar 11:41:52 11:45:31 24° 96° (E) 11:49:08 145.980
Tancredo 1 02 Mar 11:51:57 11:54:53 31° 30° (NNE) 11:57:48 437.200
AO-85 02 Mar 11:53:58 11:57:53 72° 59° (ENE) 12:01:52 145.980
DUCHIFAT 1 02 Mar 12:09:22 12:12:42 22° 265° (W) 12:16:04 145.980
Gurwin Techsat 1B 02 Mar 12:18:29 12:22:41 24° 66° (ENE) 12:26:54 435.225
Oscar 19 02 Mar 12:26:22 12:31:20 50° 72° (ENE) 12:36:17 437.125/150
EO-79 02 Mar 12:28:53 12:30:31 12° 269° (W) 12:32:09 145.935-145.965
YUBILEINY 02 Mar 12:30:34 12:34:14 13° 301° (WNW) 12:37:55 435.215
50 SAT 02 Mar 12:42:32 12:46:01 86° 285° (WNW) 12:49:29 437.505
SPROUT 02 Mar 12:42:41 12:47:01 80° 284° (WNW) 12:51:18 437.525
BUGSAT 1 02 Mar 12:42:58 12:46:25 26° 264° (W) 12:49:55 437.445
DX 1 02 Mar 12:50:12 12:54:32 61° 101° (ESE) 12:58:50 434.975-435.025
UKube-1 02 Mar 12:50:52 12:54:59 42° 99° (E) 12:59:05 .
BEESAT 3 02 Mar 12:55:12 12:58:23 22° 49° (NE) 13:01:31 437.485
ITAMSAT 1 02 Mar 13:15:07 13:17:57 15° 61° (ENE) 13:20:48 435.822/435.867
ISS 02 Mar 13:17:29 13:20:34 37° 225° (SW) 13:23:37 437.550
VELOX 1 02 Mar 13:18:07 13:21:54 28° 291° (WNW) 13:25:40 145.980
PCSat 02 Mar 13:25:50 13:26:41 10° 101° (ESE) 13:27:33 145.827
Tancredo 1 02 Mar 13:28:18 13:31:04 26° 227° (SW) 13:33:48 437.200
AO-7 02 Mar 13:31:34 13:38:33 31° 58° (ENE) 13:45:32 .
BEESAT 2 02 Mar 13:45:56 13:49:33 30° 52° (NE) 13:53:07 435.950
Gurwin Techsat 1B 02 Mar 13:57:23 14:02:22 41° 262° (W) 14:07:22 435.225
Oscar 19 02 Mar 14:07:28 14:10:54 18° 267° (W) 14:14:20 437.125/150
